TimeCST,TemperatureF,Dew PointF,Humidity,Sea Level PressureIn,VisibilityMPH,Wind Direction,Wind SpeedMPH,Gust SpeedMPH,PrecipitationIn,Events,Conditions,WindDirDegrees,DateUTC
12:15 AM,28.4,21.2,74,30.17,10.0,Calm,Calm,-,N/A,,Clear,0,2012-11-14 06:15:00
12:35 AM,32.0,21.2,64,30.17,10.0,SSW,5.8,-,N/A,,Clear,200,2012-11-14 06:35:00
12:55 AM,32.0,21.2,64,30.16,10.0,SSW,3.5,-,N/A,,Clear,200,2012-11-14 06:55:00
1:15 AM,32.0,21.2,64,30.16,10.0,Calm,Calm,-,N/A,,Clear,0,2012-11-14 07:15:00
1:55 AM,32.0,21.2,64,30.15,10.0,South,6.9,-,N/A,,Clear,190,2012-11-14 07:55:00
2:15 AM,32.0,21.2,64,30.15,10.0,South,4.6,-,N/A,,Clear,180,2012-11-14 08:15:00
2:35 AM,28.4,21.2,74,30.15,10.0,SSW,5.8,-,N/A,,Partly Cloudy,200,2012-11-14 08:35:00
2:55 AM,30.2,21.2,69,30.15,10.0,Calm,Calm,-,N/A,,Scattered Clouds,0,2012-11-14 08:55:00
3:15 AM,30.2,21.2,69,30.14,10.0,South,5.8,-,N/A,,Partly Cloudy,170,2012-11-14 09:15:00
3:55 AM,26.6,19.4,74,30.13,10.0,West,3.5,-,N/A,,Clear,260,2012-11-14 09:55:00
4:15 AM,28.4,19.4,69,30.13,10.0,WSW,8.1,-,N/A,,Clear,240,2012-11-14 10:15:00
4:55 AM,28.4,21.2,74,30.12,10.0,SW,5.8,-,N/A,,Clear,220,2012-11-14 10:55:00
5:15 AM,32.0,21.2,64,30.12,10.0,Calm,Calm,-,N/A,,Clear,0,2012-11-14 11:15:00
5:35 AM,26.6,19.4,74,30.12,10.0,South,3.5,-,N/A,,Clear,190,2012-11-14 11:35:00
5:55 AM,26.6,19.4,74,30.12,10.0,SSW,5.8,-,N/A,,Clear,210,2012-11-14 11:55:00
6:15 AM,26.6,21.2,80,30.11,10.0,SSW,9.2,-,N/A,,Clear,210,2012-11-14 12:15:00
6:35 AM,26.6,21.2,80,30.10,10.0,SSW,6.9,-,N/A,,Clear,210,2012-11-14 12:35:00
6:55 AM,28.4,21.2,74,30.10,10.0,SSW,10.4,-,N/A,,Clear,210,2012-11-14 12:55:00
7:15 AM,28.4,21.2,74,30.10,10.0,Calm,Calm,-,N/A,,Clear,0,2012-11-14 13:15:00
7:35 AM,28.4,19.4,69,30.10,10.0,Calm,Calm,-,N/A,,Clear,0,2012-11-14 13:35:00
7:55 AM,32.0,19.4,60,30.10,10.0,ENE,3.5,-,N/A,,Clear,60,2012-11-14 13:55:00
8:15 AM,28.4,21.2,74,30.10,10.0,South,5.8,-,N/A,,Clear,180,2012-11-14 14:15:00
8:35 AM,32.0,23.0,69,30.10,10.0,South,4.6,-,N/A,,Clear,180,2012-11-14 14:35:00
8:55 AM,32.0,23.0,69,30.11,10.0,Calm,Calm,-,N/A,,Clear,0,2012-11-14 14:55:00
9:15 AM,32.0,23.0,69,30.11,10.0,Calm,Calm,-,N/A,,Clear,0,2012-11-14 15:15:00
9:35 AM,35.6,23.0,60,30.11,10.0,SSW,4.6,-,N/A,,Clear,200,2012-11-14 15:35:00
9:55 AM,39.2,23.0,52,30.10,10.0,Calm,Calm,-,N/A,,Clear,0,2012-11-14 15:55:00
10:15 AM,41.0,24.8,53,30.10,10.0,Calm,Calm,-,N/A,,Clear,0,2012-11-14 16:15:00
10:35 AM,41.0,24.8,53,30.10,10.0,Calm,Calm,-,N/A,,Clear,0,2012-11-14 16:35:00
10:55 AM,44.6,24.8,46,30.09,10.0,Calm,Calm,-,N/A,,Clear,0,2012-11-14 16:55:00
11:15 AM,46.4,21.2,37,30.09,10.0,Calm,Calm,-,N/A,,Clear,0,2012-11-14 17:15:00
11:35 AM,48.2,19.4,32,30.08,10.0,West,4.6,-,N/A,,Clear,270,2012-11-14 17:35:00
11:55 AM,48.2,19.4,32,30.08,10.0,NW,4.6,-,N/A,,Clear,320,2012-11-14 17:55:00
12:15 PM,50.0,19.4,30,30.07,10.0,NW,6.9,-,N/A,,Clear,320,2012-11-14 18:15:00
12:35 PM,50.0,19.4,30,30.06,10.0,NNW,8.1,-,N/A,,Clear,330,2012-11-14 18:35:00
12:55 PM,53.6,19.4,26,30.05,10.0,NW,11.5,17.3,N/A,,Clear,310,2012-11-14 18:55:00
1:15 PM,51.8,19.4,28,30.04,10.0,WNW,8.1,-,N/A,,Clear,300,2012-11-14 19:15:00
1:35 PM,51.8,19.4,28,30.04,10.0,NW,9.2,-,N/A,,Clear,310,2012-11-14 19:35:00
1:55 PM,53.6,19.4,26,30.04,10.0,WNW,15.0,21.9,N/A,,Clear,300,2012-11-14 19:55:00
2:15 PM,51.8,17.6,26,30.04,10.0,WNW,11.5,17.3,N/A,,Scattered Clouds,300,2012-11-14 20:15:00
2:35 PM,53.6,17.6,24,30.04,10.0,West,13.8,18.4,N/A,,Scattered Clouds,280,2012-11-14 20:35:00
2:55 PM,51.8,17.6,26,30.03,10.0,WNW,12.7,20.7,N/A,,Partly Cloudy,290,2012-11-14 20:55:00
3:15 PM,51.8,17.6,26,30.03,10.0,West,10.4,-,N/A,,Partly Cloudy,280,2012-11-14 21:15:00
3:35 PM,50.0,21.2,32,30.04,10.0,NNE,10.4,-,N/A,,Partly Cloudy,20,2012-11-14 21:35:00
3:55 PM,48.2,23.0,37,30.04,10.0,NE,8.1,-,N/A,,Mostly Cloudy,50,2012-11-14 21:55:00
4:15 PM,48.2,23.0,37,30.05,10.0,ENE,5.8,-,N/A,,Mostly Cloudy,60,2012-11-14 22:15:00
4:35 PM,46.4,23.0,40,30.05,10.0,ESE,6.9,-,N/A,,Overcast,120,2012-11-14 22:35:00
4:55 PM,44.6,23.0,43,30.06,10.0,SE,4.6,-,N/A,,Overcast,140,2012-11-14 22:55:00
5:15 PM,41.0,24.8,53,30.06,10.0,Calm,Calm,-,N/A,,Overcast,0,2012-11-14 23:15:00
5:35 PM,42.8,24.8,49,30.06,10.0,South,4.6,-,N/A,,Overcast,180,2012-11-14 23:35:00
5:55 PM,42.8,23.0,46,30.07,10.0,SW,4.6,-,N/A,,Overcast,220,2012-11-14 23:55:00
6:15 PM,41.0,24.8,53,30.08,10.0,SW,4.6,-,N/A,,Overcast,220,2012-11-15 00:15:00
6:35 PM,42.8,23.0,46,30.09,10.0,WSW,5.8,-,N/A,,Overcast,250,2012-11-15 00:35:00
6:55 PM,41.0,24.8,53,30.11,10.0,NNW,10.4,19.6,N/A,,Overcast,340,2012-11-15 00:55:00
7:15 PM,42.8,23.0,46,30.12,10.0,WNW,4.6,-,N/A,,Overcast,300,2012-11-15 01:15:00
7:35 PM,41.0,23.0,49,30.12,10.0,Calm,Calm,-,N/A,,Mostly Cloudy,0,2012-11-15 01:35:00
7:55 PM,37.4,23.0,56,30.12,10.0,WSW,5.8,-,N/A,,Overcast,240,2012-11-15 01:55:00
8:15 PM,39.2,24.8,56,30.13,10.0,WSW,8.1,-,N/A,,Overcast,250,2012-11-15 02:15:00
8:35 PM,41.0,24.8,53,30.14,10.0,West,8.1,-,N/A,,Overcast,260,2012-11-15 02:35:00
8:55 PM,41.0,24.8,53,30.14,10.0,WNW,6.9,-,N/A,,Overcast,290,2012-11-15 02:55:00
9:15 PM,41.0,24.8,53,30.15,10.0,Calm,Calm,-,N/A,,Overcast,0,2012-11-15 03:15:00
9:35 PM,41.0,24.8,53,30.16,10.0,West,8.1,-,N/A,,Overcast,280,2012-11-15 03:35:00
9:55 PM,41.0,24.8,53,30.17,10.0,WNW,10.4,16.1,N/A,,Scattered Clouds,290,2012-11-15 03:55:00
10:15 PM,39.2,24.8,56,30.18,10.0,West,8.1,-,N/A,,Clear,280,2012-11-15 04:15:00
10:35 PM,37.4,23.0,56,30.18,10.0,West,8.1,-,N/A,,Clear,260,2012-11-15 04:35:00
10:55 PM,35.6,23.0,60,30.19,10.0,West,5.8,-,N/A,,Clear,280,2012-11-15 04:55:00
11:15 PM,35.6,24.8,65,30.19,10.0,West,8.1,-,N/A,,Scattered Clouds,260,2012-11-15 05:15:00
11:55 PM,35.6,24.8,65,30.20,10.0,WSW,8.1,-,N/A,,Scattered Clouds,250,2012-11-15 05:55:00